| time (UTC) | temp C | wind direction | speed KPH | gust KPH | rain 1hr cm | rain 24hr cm | rain mn cm | humidity % | barometer mb |
| 20260507114707 | 8 | 260 | 0.0 | 0.0 | 0.00 | 2.16 | 0.79 | 92 | 1005.6 |
| 20260507114204 | 8 | 269 | 0.0 | 0.0 | 0.00 | 2.16 | 0.79 | 92 | 1005.7 |
| 20260507114200 | 8 | 311 | 0.0 | 0.0 | 0.00 | 2.16 | 0.79 | 93 | 1005.8 |
| 20260507113148 | 8 | 278 | 0.0 | 0.0 | 0.00 | 2.16 | 0.79 | 94 | 1005.7 |
| 20260507112642 | 7 | 280 | 0.0 | 0.0 | 0.00 | 2.16 | 0.79 | 94 | 1005.7 |
| 20260507112127 | 7 | 265 | 0.0 | 0.0 | 0.00 | 2.16 | 0.79 | 95 | 1006.0 |
| 20260507112112 | 7 | 258 | 0.0 | 0.0 | 0.00 | 2.16 | 0.79 | 96 | 1006.1 |
| 20260507111110 | 7 | 337 | 0.0 | 0.0 | 0.00 | 2.16 | 0.79 | 96 | 1005.9 |
| 20260507110610 | 7 | 319 | 0.0 | 0.0 | 0.00 | 2.16 | 0.79 | 97 | 1005.7 |
| 20260507110115 | 7 | 255 | 0.0 | 0.0 | 0.00 | 2.16 | 0.79 | 97 | 1006.7 |
| 20260507110111 | 7 | 255 | 0.0 | 0.0 | 0.00 | 2.16 | 0.79 | 97 | 1006.3 |
| 20260507105714 | 7 | 329 | 0.0 | 0.0 | 0.00 | 2.16 | 0.79 | 97 | 1006.0 |
| 20260507104610 | 7 | 262 | 0.0 | 0.0 | 0.00 | 2.16 | 0.79 | 98 | 1005.8 |
| 20260507104115 | 7 | 300 | 0.0 | 0.0 | 0.00 | 2.16 | 0.79 | 99 | 1005.7 |
| 20260507104111 | 7 | 257 | 0.0 | 0.0 | 0.00 | 2.16 | 0.79 | 98 | 1006.3 |
| 20260507103606 | 7 | 257 | 0.0 | 0.0 | 0.00 | 2.16 | 0.79 | 98 | 1006.1 |
| 20260507103211 | 7 | 27 | 0.0 | 0.0 | 0.00 | 2.16 | 0.79 | 99 | 1006.0 |
| 20260507102711 | 7 | 262 | 0.0 | 0.0 | 0.00 | 2.16 | 0.79 | 99 | 1005.8 |
| 20260507101605 | 7 | 261 | 0.0 | 0.0 | 0.00 | 2.16 | 0.79 | 99 | 1005.9 |
| 20260507101107 | 7 | 261 | 0.0 | 0.0 | 0.00 | 2.16 | 0.79 | 99 | 1006.0 |
| 20260507101103 | 7 | 261 | 0.0 | 0.0 | 0.00 | 2.16 | 0.79 | 99 | 1005.6 |
| 20260507100707 | 7 | 262 | 0.0 | 0.0 | 0.00 | 2.16 | 0.79 | 99 | 1005.2 |
| 20260507100207 | 7 | 262 | 0.0 | 0.0 | 0.00 | 2.16 | 0.79 | 99 | 1005.1 |
| 20260507095102 | 7 | 262 | 0.0 | 0.0 | 0.00 | 2.16 | 0.79 | 99 | 1005.5 |
| 20260507094602 | 7 | 262 | 0.0 | 0.0 | 0.00 | 2.16 | 0.79 | 98 | 1005.7 |
| 20260507094102 | 7 | 260 | 0.0 | 0.0 | 0.00 | 2.16 | 0.79 | 98 | 1005.3 |
| 20260507093602 | 7 | 264 | 0.0 | 0.0 | 0.00 | 2.16 | 0.79 | 98 | 1005.1 |
| 20260507093102 | 7 | 297 | 0.0 | 0.0 | 0.00 | 2.16 | 0.79 | 98 | 1004.8 |
| 20260507092602 | 7 | 271 | 0.0 | 0.0 | 0.00 | 2.16 | 0.79 | 99 | 1005.2 |
| 20260507092207 | 7 | 274 | 0.0 | 0.0 | 0.00 | 2.16 | 0.79 | 99 | 1005.3 |
| 20260507092107 | 7 | 276 | 0.0 | 0.0 | 0.00 | 2.16 | 0.79 | 99 | 1005.3 |
| 20260507092103 | 7 | 265 | 0.0 | 0.0 | 0.00 | 2.16 | 0.79 | 99 | 1005.6 |
| 20260507091102 | 7 | 262 | 0.0 | 0.0 | 0.00 | 2.16 | 0.79 | 99 | 1005.5 |
| 20260507090708 | 7 | 304 | 0.0 | 0.0 | 0.00 | 2.16 | 0.79 | 99 | 1005.4 |
| 20260507085607 | 7 | 262 | 0.0 | 0.0 | 0.00 | 2.16 | 0.79 | 99 | 1005.2 |
| 20260507085602 | 7 | 276 | 0.0 | 0.0 | 0.00 | 2.16 | 0.79 | 99 | 1005.5 |
| 20260507084603 | 7 | 297 | 0.0 | 0.0 | 0.00 | 2.16 | 0.79 | 99 | 1005.2 |
| 20260507084102 | 7 | 250 | 0.0 | 0.0 | 0.00 | 2.16 | 0.79 | 99 | 1005.0 |
| 20260507083600 | 7 | 316 | 0.0 | 0.0 | 0.00 | 2.16 | 0.79 | 99 | 1004.9 |
| 20260507083100 | 8 | 265 | 0.0 | 0.0 | 0.00 | 2.16 | 0.79 | 99 | 1005.3 |
| 20260507082600 | 8 | 280 | 0.0 | 0.0 | 0.00 | 2.16 | 0.79 | 99 | 1005.4 |
| 20260507082059 | 8 | 278 | 0.0 | 0.0 | 0.00 | 2.16 | 0.79 | 99 | 1005.2 |
| 20260507081554 | 8 | 271 | 0.0 | 0.0 | 0.00 | 2.16 | 0.79 | 99 | 1005.3 |
| 20260507081053 | 8 | 295 | 0.0 | 0.0 | 0.00 | 2.16 | 0.79 | 99 | 1004.8 |
| 20260507080552 | 8 | 276 | 0.0 | 0.0 | 0.00 | 2.16 | 0.79 | 99 | 1005.0 |
| 20260507080052 | 8 | 250 | 0.0 | 0.0 | 0.00 | 2.16 | 0.79 | 99 | 1005.0 |
| 20260507075552 | 8 | 287 | 0.0 | 1.6 | 0.00 | 2.16 | 0.79 | 99 | 1004.9 |
| 20260507075048 | 8 | 282 | 0.0 | 1.6 | 0.00 | 2.16 | 0.79 | 99 | 1004.9 |
| 20260507074548 | 8 | 276 | 0.0 | 0.0 | 0.00 | 2.16 | 0.79 | 99 | 1005.0 |
| 20260507074047 | 8 | 263 | 0.0 | 0.0 | 0.00 | 2.16 | 0.79 | 99 | 1004.8 |
| 20260507073546 | 8 | 278 | 0.0 | 0.0 | 0.00 | 2.16 | 0.79 | 99 | 1004.7 |
| 20260507073046 | 8 | 291 | 0.0 | 0.0 | 0.00 | 2.16 | 0.79 | 99 | 1004.8 |
| 20260507072546 | 9 | 273 | 0.0 | 0.0 | 0.00 | 2.16 | 0.79 | 99 | 1004.9 |
| 20260507072046 | 9 | 313 | 0.0 | 0.0 | 0.00 | 2.16 | 0.79 | 99 | 1004.6 |
| 20260507071547 | 9 | 256 | 0.0 | 0.0 | 0.00 | 2.16 | 0.79 | 99 | 1004.5 |
| 20260507071046 | 9 | 268 | 0.0 | 0.0 | 0.00 | 2.16 | 0.79 | 99 | 1004.5 |
| 20260507070544 | 9 | 269 | 0.0 | 0.0 | 0.00 | 2.16 | 0.79 | 99 | 1004.4 |
| 20260507070044 | 9 | 268 | 0.0 | 0.0 | 0.03 | 2.16 | 0.79 | 99 | 1004.2 |
| 20260507065546 | 9 | 250 | 0.0 | 0.0 | 0.03 | 2.16 | 0.79 | 99 | 1004.3 |
| 20260507065542 | 9 | 268 | 0.0 | 0.0 | 0.03 | 2.16 | 0.79 | 99 | 1004.2 |
| 20260507064540 | 9 | 250 | 0.0 | 0.0 | 0.03 | 2.16 | 0.79 | 99 | 1004.1 |
| 20260507064040 | 9 | 250 | 0.0 | 0.0 | 0.03 | 2.16 | 0.79 | 99 | 1003.9 |
| 20260507063540 | 9 | 276 | 0.0 | 0.0 | 0.03 | 2.16 | 0.79 | 99 | 1004.0 |
| 20260507063038 | 9 | 276 | 0.0 | 0.0 | 0.03 | 2.16 | 0.79 | 99 | 1004.0 |
| 20260507062538 | 9 | 304 | 0.0 | 0.0 | 0.03 | 2.16 | 0.79 | 99 | 1004.0 |
| 20260507062038 | 9 | 282 | 0.0 | 0.0 | 0.03 | 2.16 | 0.79 | 99 | 1004.0 |
| 20260507061538 | 9 | 237 | 0.0 | 0.0 | 0.03 | 2.16 | 0.79 | 99 | 1004.1 |
| 20260507061038 | 9 | 271 | 0.0 | 0.0 | 0.03 | 2.16 | 0.79 | 99 | 1004.0 |
| 20260507060538 | 9 | 253 | 0.0 | 0.0 | 0.05 | 2.16 | 0.79 | 99 | 1003.7 |
| 20260507060042 | 9 | 265 | 0.0 | 0.0 | 0.10 | 2.13 | 0.76 | 99 | 1003.8 |
| 20260507060038 | 9 | 270 | 0.0 | 0.0 | 0.05 | 2.13 | 0.76 | 99 | 1003.9 |
| 20260507055036 | 9 | 300 | 0.0 | 1.6 | 0.15 | 2.13 | 0.76 | 99 | 1003.9 |
| 20260507054536 | 9 | 264 | 0.0 | 3.2 | 0.25 | 2.13 | 0.76 | 99 | 1003.8 |
| 20260507054036 | 9 | 252 | 0.0 | 3.2 | 0.33 | 2.13 | 0.76 | 99 | 1003.9 |
| 20260507053540 | 10 | 312 | 1.6 | 8.0 | 0.51 | 2.13 | 0.76 | 99 | 1003.8 |
| 20260507053536 | 9 | 248 | 0.0 | 8.0 | 0.41 | 2.13 | 0.76 | 99 | 1003.9 |
| 20260507052541 | 10 | 277 | 1.6 | 8.0 | 0.61 | 2.13 | 0.76 | 99 | 1003.8 |
| 20260507052036 | 10 | 277 | 3.2 | 9.7 | 0.66 | 2.13 | 0.76 | 99 | 1003.8 |
| 20260507051535 | 10 | 355 | 3.2 | 16.1 | 0.69 | 2.13 | 0.76 | 99 | 1004.0 |
| 20260507051036 | 10 | 250 | 3.2 | 16.1 | 0.74 | 2.13 | 0.76 | 99 | 1004.0 |
| 20260507050533 | 10 | 316 | 3.2 | 11.3 | 0.74 | 2.11 | 0.76 | 99 | 1003.8 |
| 20260507050034 | 10 | 272 | 3.2 | 14.5 | 0.71 | 2.08 | 0.71 | 99 | 1003.7 |
| 20260507045534 | 10 | 308 | 1.6 | 14.5 | 0.69 | 2.03 | 0.69 | 99 | 1004.4 |
| 20260507045034 | 11 | 20 | 0.0 | 0.0 | 0.64 | 1.98 | 0.64 | 99 | 1004.4 |
| 20260507044534 | 11 | 259 | 0.0 | 0.0 | 0.53 | 1.88 | 0.53 | 99 | 1004.7 |
| 20260507044034 | 11 | 259 | 0.0 | 0.0 | 0.46 | 1.80 | 0.46 | 99 | 1004.8 |
| 20260507043533 | 11 | 259 | 0.0 | 0.0 | 0.38 | 1.73 | 0.38 | 99 | 1004.2 |
| 20260507043034 | 11 | 303 | 0.0 | 0.0 | 0.28 | 1.63 | 0.28 | 99 | 1003.9 |
| 20260507042534 | 11 | 303 | 0.0 | 0.0 | 0.18 | 1.52 | 0.18 | 99 | 1003.8 |
| 20260507042036 | 11 | 303 | 0.0 | 0.0 | 0.13 | 1.47 | 0.10 | 99 | 1003.7 |
| 20260507042032 | 11 | 296 | 0.0 | 0.0 | 0.10 | 1.45 | 0.08 | 99 | 1003.5 |
| 20260507041636 | 11 | 223 | 0.0 | 0.0 | 0.05 | 1.40 | 0.05 | 99 | 1003.5 |
| 20260507040537 | 11 | 252 | 0.0 | 0.0 | 0.03 | 1.37 | 0.00 | 99 | 1003.1 |
| 20260507040531 | 11 | 304 | 0.0 | 0.0 | 0.03 | 1.37 | 0.00 | 99 | 1003.5 |
| 20260507040031 | 11 | 252 | 0.0 | 0.0 | 0.00 | 1.35 | 1.35 | 99 | 1003.1 |
| 20260507035634 | 11 | 108 | 0.0 | 0.0 | 0.00 | 1.35 | 1.35 | 99 | 1002.9 |
| 20260507034526 | 11 | 108 | 0.0 | 0.0 | 0.00 | 1.35 | 1.35 | 99 | 1003.1 |
| 20260507034027 | 11 | 231 | 0.0 | 0.0 | 0.00 | 1.35 | 1.35 | 99 | 1003.2 |
| 20260507033526 | 11 | 219 | 0.0 | 0.0 | 0.00 | 1.35 | 1.35 | 99 | 1003.3 |
| 20260507033024 | 11 | 252 | 0.0 | 0.0 | 0.00 | 1.35 | 1.35 | 99 | 1003.2 |
| 20260507032523 | 11 | 153 | 0.0 | 0.0 | 0.00 | 1.35 | 1.35 | 99 | 1003.4 |
| 20260507032020 | 11 | 285 | 0.0 | 0.0 | 0.03 | 1.35 | 1.35 | 99 | 1003.4 |
| 20260507031520 | 11 | 234 | 0.0 | 0.0 | 0.03 | 1.35 | 1.35 | 99 | 1003.3 |
| 20260507031020 | 11 | 257 | 0.0 | 1.6 | 0.03 | 1.35 | 1.35 | 99 | 1003.3 |
| 20260507030520 | 11 | 234 | 0.0 | 3.2 | 0.05 | 1.35 | 1.35 | 99 | 1003.2 |
| 20260507030020 | 11 | 134 | 0.0 | 3.2 | 0.05 | 1.35 | 1.35 | 99 | 1003.3 |
| 20260507025520 | 11 | 103 | 0.0 | 3.2 | 0.05 | 1.35 | 1.35 | 99 | 1003.4 |
| 20260507025020 | 11 | 218 | 0.0 | 1.6 | 0.08 | 1.35 | 1.35 | 99 | 1003.5 |
| 20260507024519 | 11 | 165 | 0.0 | 1.6 | 0.08 | 1.35 | 1.35 | 99 | 1003.5 |
| 20260507024020 | 11 | 209 | 0.0 | 8.0 | 0.08 | 1.35 | 1.35 | 99 | 1003.6 |
| 20260507023524 | 11 | 217 | 0.0 | 0.0 | 0.13 | 1.35 | 1.35 | 99 | 1003.7 |
| 20260507023520 | 11 | 94 | 0.0 | 8.0 | 0.10 | 1.35 | 1.35 | 99 | 1003.6 |
| 20260507022524 | 11 | 86 | 0.0 | 0.0 | 0.10 | 1.32 | 1.32 | 99 | 1003.8 |
| 20260507022520 | 11 | 316 | 0.0 | 0.0 | 0.13 | 1.35 | 1.35 | 99 | 1003.7 |
| 20260507021518 | 11 | 229 | 0.0 | 0.0 | 0.10 | 1.32 | 1.32 | 99 | 1003.9 |
| 20260507021017 | 11 | 229 | 0.0 | 0.0 | 0.13 | 1.32 | 1.32 | 99 | 1004.0 |
| 20260507020516 | 11 | 216 | 0.0 | 0.0 | 0.10 | 1.30 | 1.30 | 99 | 1004.1 |
| 20260507020016 | 11 | 215 | 0.0 | 0.0 | 0.13 | 1.30 | 1.30 | 99 | 1004.2 |
| 20260507015515 | 11 | 188 | 0.0 | 0.0 | 0.18 | 1.30 | 1.30 | 99 | 1004.2 |
| 20260507015014 | 11 | 191 | 0.0 | 0.0 | 0.18 | 1.27 | 1.27 | 99 | 1004.3 |
| 20260507014514 | 11 | 217 | 0.0 | 1.6 | 0.18 | 1.27 | 1.27 | 99 | 1004.3 |
| 20260507014014 | 11 | 227 | 0.0 | 4.8 | 0.20 | 1.27 | 1.27 | 99 | 1004.4 |
| 20260507013514 | 11 | 223 | 0.0 | 4.8 | 0.18 | 1.24 | 1.24 | 99 | 1004.2 |
| 20260507013015 | 11 | 214 | 0.0 | 4.8 | 0.15 | 1.22 | 1.22 | 99 | 1004.5 |
| 20260507012516 | 11 | 236 | 1.6 | 8.0 | 0.15 | 1.22 | 1.22 | 99 | 1004.6 |
| 20260507012512 | 11 | 304 | 1.6 | 8.0 | 0.15 | 1.22 | 1.22 | 99 | 1004.6 |
| 20260507011517 | 11 | 203 | 0.0 | 1.6 | 0.13 | 1.19 | 1.19 | 99 | 1004.5 |
| 20260507011512 | 11 | 222 | 0.0 | 1.6 | 0.15 | 1.22 | 1.22 | 99 | 1004.6 |
| 20260507011012 | 11 | 243 | 0.0 | 1.6 | 0.13 | 1.19 | 1.19 | 99 | 1004.6 |
| 20260507010016 | 11 | 127 | 0.0 | 6.4 | 0.05 | 1.12 | 1.14 | 99 | 1004.7 |
| 20260507010012 | 11 | 299 | 0.0 | 1.6 | 0.10 | 1.17 | 1.17 | 99 | 1004.7 |
| 20260507005012 | 11 | 146 | 0.0 | 6.4 | 0.03 | 1.09 | 1.09 | 99 | 1004.8 |
| 20260507004516 | 11 | 242 | 1.6 | 8.0 | 0.00 | 1.07 | 1.07 | 99 | 1004.9 |
| 20260507004512 | 11 | 290 | 0.0 | 8.0 | 0.03 | 1.09 | 1.09 | 99 | 1004.9 |
| 20260507004116 | 11 | 287 | 1.6 | 8.0 | 0.00 | 1.07 | 1.07 | 99 | 1005.0 |
| 20260507003512 | 11 | 66 | 1.6 | 6.4 | 0.00 | 1.07 | 1.07 | 99 | 1004.9 |
| 20260507002510 | 11 | 300 | 1.6 | 11.3 | 0.00 | 1.07 | 1.07 | 99 | 1004.9 |
| 20260507002010 | 11 | 192 | 1.6 | 11.3 | 0.00 | 1.07 | 1.07 | 99 | 1004.7 |
| 20260507001510 | 11 | 115 | 1.6 | 11.3 | 0.00 | 1.07 | 1.07 | 99 | 1004.8 |
| 20260507001010 | 11 | 30 | 1.6 | 6.4 | 0.00 | 1.07 | 1.07 | 99 | 1004.9 |
| 20260507000509 | 11 | 148 | 1.6 | 6.4 | 0.00 | 1.07 | 1.07 | 99 | 1004.8 |
| 20260507000010 | 11 | 282 | 1.6 | 6.4 | 0.03 | 1.07 | 1.07 | 99 | 1004.8 |
| 20260506235510 | 11 | 211 | 1.6 | 6.4 | 0.03 | 1.07 | 1.07 | 99 | 1004.8 |
| 20260506235009 | 11 | 162 | 1.6 | 14.5 | 0.03 | 1.07 | 1.07 | 99 | 1005.0 |
| 20260506234508 | 11 | 200 | 1.6 | 14.5 | 0.03 | 1.07 | 1.07 | 99 | 1005.0 |
| 20260506234007 | 12 | 159 | 0.0 | 6.4 | 0.03 | 1.07 | 1.07 | 99 | 1005.0 |
| 20260506233512 | 12 | 119 | 0.0 | 0.0 | 0.10 | 1.07 | 1.07 | 99 | 1005.1 |
| 20260506233508 | 12 | 283 | 0.0 | 1.6 | 0.05 | 1.07 | 1.07 | 99 | 1005.0 |
| 20260506233007 | 12 | 107 | 0.0 | 0.0 | 0.08 | 1.07 | 1.07 | 99 | 1005.1 |
| 20260506232007 | 12 | 214 | 0.0 | 0.0 | 0.10 | 1.07 | 1.07 | 99 | 1005.1 |
| 20260506231508 | 12 | 208 | 0.0 | 0.0 | 0.13 | 1.07 | 1.07 | 99 | 1005.2 |
| 20260506231008 | 12 | 129 | 0.0 | 0.0 | 0.15 | 1.07 | 1.07 | 99 | 1005.2 |
| 20260506230507 | 12 | 286 | 0.0 | 0.0 | 0.18 | 1.07 | 1.07 | 99 | 1005.2 |
| 20260506230012 | 12 | 248 | 0.0 | 3.2 | 0.20 | 1.04 | 1.04 | 99 | 1005.3 |
| 20260506230008 | 12 | 255 | 0.0 | 3.2 | 0.18 | 1.04 | 1.04 | 99 | 1005.2 |
| 20260506225507 | 12 | 217 | 0.0 | 3.2 | 0.20 | 1.04 | 1.04 | 99 | 1005.2 |
| 20260506224506 | 12 | 120 | 0.0 | 0.0 | 0.23 | 1.04 | 1.04 | 99 | 1005.3 |
| 20260506224006 | 12 | 224 | 0.0 | 0.0 | 0.25 | 1.04 | 1.04 | 99 | 1005.4 |
| 20260506223506 | 12 | 221 | 0.0 | 0.0 | 0.28 | 1.02 | 1.02 | 99 | 1005.4 |
| 20260506223006 | 12 | 270 | 0.0 | 0.0 | 0.30 | 0.99 | 0.99 | 99 | 1005.5 |
| 20260506222506 | 12 | 30 | 0.0 | 0.0 | 0.33 | 0.97 | 0.97 | 99 | 1005.4 |
| 20260506222010 | 12 | 284 | 0.0 | 0.0 | 0.41 | 0.94 | 0.94 | 99 | 1005.5 |
| 20260506222006 | 12 | 273 | 0.0 | 0.0 | 0.38 | 0.97 | 0.97 | 99 | 1005.5 |
| 20260506221003 | 12 | 131 | 0.0 | 0.0 | 0.46 | 0.91 | 0.91 | 99 | 1005.6 |
| 20260506220504 | 12 | 215 | 0.0 | 0.0 | 0.46 | 0.89 | 0.89 | 99 | 1005.7 |
| 20260506220001 | 12 | 333 | 0.0 | 0.0 | 0.46 | 0.86 | 0.86 | 99 | 1005.7 |
| 20260506215501 | 12 | 324 | 0.0 | 0.0 | 0.46 | 0.84 | 0.84 | 99 | 1005.8 |
| 20260506215002 | 12 | 214 | 0.0 | 0.0 | 0.46 | 0.84 | 0.84 | 99 | 1005.7 |
| 20260506214500 | 12 | 18 | 0.0 | 0.0 | 0.46 | 0.81 | 0.81 | 99 | 1005.9 |
| 20260506214000 | 12 | 138 | 0.0 | 0.0 | 0.43 | 0.76 | 0.79 | 99 | 1005.7 |
| 20260506213500 | 12 | 200 | 0.0 | 0.0 | 0.43 | 0.74 | 0.74 | 99 | 1005.8 |
| 20260506212959 | 12 | 266 | 0.0 | 0.0 | 0.41 | 0.69 | 0.69 | 99 | 1006.1 |
| 20260506212459 | 12 | 252 | 0.0 | 0.0 | 0.36 | 0.64 | 0.64 | 99 | 1006.0 |
| 20260506212000 | 12 | 117 | 0.0 | 0.0 | 0.33 | 0.58 | 0.58 | 99 | 1006.0 |
| 20260506211503 | 12 | 81 | 0.0 | 0.0 | 0.30 | 0.53 | 0.53 | 99 | 1005.9 |
| 20260506211459 | 12 | 302 | 0.0 | 0.0 | 0.25 | 0.46 | 0.48 | 99 | 1006.1 |
| 20260506210457 | 12 | 215 | 0.0 | 0.0 | 0.25 | 0.43 | 0.43 | 99 | 1006.2 |
| 20260506205948 | 12 | 38 | 0.0 | 0.0 | 0.25 | 0.41 | 0.41 | 99 | 1006.2 |
| 20260506205445 | 12 | 234 | 0.0 | 0.0 | 0.23 | 0.38 | 0.38 | 99 | 1006.2 |
| 20260506204946 | 12 | 257 | 0.0 | 0.0 | 0.25 | 0.38 | 0.38 | 99 | 1005.8 |
| 20260506204440 | 12 | 167 | 0.0 | 0.0 | 0.25 | 0.36 | 0.36 | 99 | 1006.0 |
| 20260506203930 | 12 | 59 | 0.0 | 0.0 | 0.23 | 0.33 | 0.33 | 99 | 1006.2 |
| 20260506203913 | 12 | 227 | 0.0 | 0.0 | 0.23 | 0.30 | 0.30 | 99 | 1006.4 |
| 20260506202907 | 12 | 293 | 0.0 | 0.0 | 0.23 | 0.28 | 0.28 | 99 | 1006.4 |
| 20260506202407 | 12 | 158 | 0.0 | 0.0 | 0.25 | 0.28 | 0.28 | 99 | 1006.6 |
| 20260506201907 | 12 | 212 | 0.0 | 0.0 | 0.25 | 0.25 | 0.25 | 99 | 1006.6 |
| 20260506201353 | 12 | 120 | 0.0 | 0.0 | 0.23 | 0.23 | 0.23 | 99 | 1006.6 |
| 20260506200853 | 12 | 55 | 0.0 | 0.0 | 0.18 | 0.18 | 0.20 | 98 | 1006.7 |
| 20260506200354 | 12 | 152 | 0.0 | 0.0 | 0.18 | 0.18 | 0.18 | 98 | 1006.6 |
| 20260506195840 | 12 | 147 | 0.0 | 0.0 | 0.15 | 0.15 | 0.15 | 97 | 1006.8 |
| 20260506195338 | 12 | 145 | 0.0 | 0.0 | 0.15 | 0.15 | 0.15 | 97 | 1006.6 |
| 20260506194833 | 13 | 255 | 0.0 | 0.0 | 0.08 | 0.08 | 0.10 | 95 | 1006.7 |
| 20260506194829 | 12 | 144 | 0.0 | 0.0 | 0.13 | 0.13 | 0.13 | 96 | 1006.7 |
| 20260506194328 | 12 | 34 | 0.0 | 0.0 | 0.10 | 0.10 | 0.10 | 96 | 1006.5 |
| 20260506193327 | 13 | 333 | 0.0 | 0.0 | 0.08 | 0.08 | 0.08 | 94 | 1006.7 |
| 20260506192807 | 13 | 229 | 1.6 | 14.5 | 0.05 | 0.05 | 0.05 | 94 | 1006.5 |
| 20260506192307 | 13 | 129 | 0.0 | 14.5 | 0.03 | 0.03 | 0.03 | 93 | 1006.4 |
| 20260506191805 | 13 | 282 | 0.0 | 0.0 | 0.00 | 0.00 | 0.00 | 92 | 1006.6 |
| 20260506191306 | 13 | 310 | 0.0 | 0.0 | 0.00 | 0.00 | 0.00 | 91 | 1006.4 |
| 20260506190807 | 13 | 247 | 0.0 | 0.0 | 0.00 | 0.00 | 0.00 | 89 | 1006.6 |
| 20260506190803 | 13 | 110 | 0.0 | 0.0 | 0.00 | 0.00 | 0.00 | 87 | 1006.4 |
| 20260506190407 | 13 | 111 | 0.0 | 0.0 | 0.00 | 0.00 | 0.00 | 87 | 1006.4 |
| 20260506185300 | 14 | 146 | 0.0 | 0.0 | 0.00 | 0.00 | 0.00 | 86 | 1006.5 |
| 20260506184757 | 14 | 99 | 0.0 | 0.0 | 0.00 | 0.00 | 0.00 | 86 | 1006.6 |
| 20260506184300 | 14 | 132 | 0.0 | 0.0 | 0.00 | 0.00 | 0.00 | 85 | 1006.6 |
| 20260506183739 | 14 | 302 | 0.0 | 0.0 | 0.00 | 0.00 | 0.00 | 85 | 1006.8 |
| 20260506183237 | 15 | 234 | 0.0 | 0.0 | 0.00 | 0.00 | 0.00 | 84 | 1006.8 |
| 20260506182727 | 15 | 32 | 0.0 | 0.0 | 0.00 | 0.00 | 0.00 | 84 | 1006.6 |
| 20260506182223 | 15 | 267 | 0.0 | 0.0 | 0.00 | 0.00 | 0.00 | 84 | 1006.8 |
| 20260506181717 | 15 | 133 | 1.6 | 9.7 | 0.00 | 0.00 | 0.00 | 83 | 1006.8 |
| 20260506181216 | 15 | 302 | 1.6 | 9.7 | 0.00 | 0.00 | 0.00 | 84 | 1006.8 |
| 20260506181212 | 15 | 134 | 1.6 | 8.0 | 0.00 | 0.00 | 0.00 | 84 | 1006.9 |
| 20260506180210 | 15 | 240 | 1.6 | 9.7 | 0.00 | 0.00 | 0.00 | 85 | 1007.0 |
| 20260506175709 | 15 | 92 | 1.6 | 9.7 | 0.00 | 0.00 | 0.00 | 84 | 1007.0 |
| 20260506175209 | 15 | 134 | 0.0 | 4.8 | 0.00 | 0.00 | 0.00 | 83 | 1007.0 |
| 20260506174707 | 15 | 203 | 0.0 | 4.8 | 0.00 | 0.00 | 0.00 | 84 | 1007.2 |
| 20260506174143 | 15 | 210 | 1.6 | 4.8 | 0.00 | 0.00 | 0.00 | 84 | 1007.2 |
| 20260506173641 | 15 | 213 | 1.6 | 8.0 | 0.00 | 0.00 | 0.00 | 84 | 1007.1 |
| 20260506173139 | 15 | 106 | 1.6 | 9.7 | 0.00 | 0.00 | 0.00 | 84 | 1007.3 |
| 20260506172639 | 15 | 104 | 1.6 | 9.7 | 0.00 | 0.00 | 0.00 | 84 | 1007.4 |
| 20260506172109 | 15 | 229 | 0.0 | 8.0 | 0.00 | 0.00 | 0.00 | 84 | 1007.4 |
| 20260506171609 | 15 | 116 | 0.0 | 0.0 | 0.00 | 0.00 | 0.00 | 83 | 1007.6 |
| 20260506171108 | 16 | 175 | 0.0 | 0.0 | 0.00 | 0.00 | 0.00 | 82 | 1007.7 |
| 20260506171103 | 16 | 79 | 0.0 | 0.0 | 0.00 | 0.00 | 0.00 | 82 | 1007.6 |
| 20260506170053 | 16 | 124 | 0.0 | 0.0 | 0.00 | 0.00 | 0.00 | 83 | 1007.8 |
| 20260506165529 | 16 | 94 | 0.0 | 0.0 | 0.00 | 0.00 | 0.00 | 83 | 1007.9 |
| 20260506165029 | 16 | 155 | 0.0 | 0.0 | 0.00 | 0.00 | 0.00 | 82 | 1007.9 |
| 20260506164622 | 16 | 202 | 0.0 | 0.0 | 0.00 | 0.00 | 0.00 | 83 | 1008.2 |
| 20260506164529 | 16 | 113 | 0.0 | 0.0 | 0.00 | 0.00 | 0.00 | 82 | 1008.0 |
| 20260506164519 | 16 | 127 | 0.0 | 0.0 | 0.00 | 0.00 | 0.00 | 83 | 1008.2 |
| 20260506163013 | 16 | 354 | 0.0 | 0.0 | 0.00 | 0.00 | 0.00 | 82 | 1008.2 |
| 20260506162509 | 16 | 122 | 0.0 | 0.0 | 0.00 | 0.00 | 0.00 | 81 | 1008.3 |
| 20260506162009 | 16 | 138 | 0.0 | 0.0 | 0.00 | 0.00 | 0.00 | 81 | 1008.5 |
| 20260506161509 | 16 | 213 | 0.0 | 0.0 | 0.00 | 0.00 | 0.00 | 82 | 1008.5 |
| 20260506161005 | 16 | 262 | 0.0 | 0.0 | 0.00 | 0.00 | 0.00 | 82 | 1008.6 |
| 20260506160505 | 16 | 149 | 0.0 | 0.0 | 0.00 | 0.00 | 0.00 | 82 | 1008.5 |
| 20260506155957 | 16 | 244 | 0.0 | 0.0 | 0.00 | 0.00 | 0.00 | 82 | 1008.6 |
| 20260506155451 | 16 | 141 | 0.0 | 0.0 | 0.00 | 0.00 | 0.00 | 82 | 1008.8 |
| 20260506154951 | 16 | 233 | 0.0 | 0.0 | 0.00 | 0.00 | 0.00 | 81 | 1008.9 |
| 20260506154449 | 16 | 158 | 0.0 | 0.0 | 0.00 | 0.00 | 0.00 | 82 | 1008.9 |
| 20260506154445 | 16 | 243 | 0.0 | 0.0 | 0.00 | 0.00 | 0.00 | 81 | 1008.9 |
| 20260506153940 | 16 | 96 | 0.0 | 0.0 | 0.00 | 0.00 | 0.00 | 82 | 1008.9 |
| 20260506152940 | 16 | 224 | 0.0 | 0.0 | 0.00 | 0.00 | 0.00 | 82 | 1008.8 |
| 20260506152437 | 16 | 123 | 0.0 | 0.0 | 0.00 | 0.00 | 0.00 | 82 | 1008.8 |
| 20260506151937 | 16 | 94 | 0.0 | 0.0 | 0.00 | 0.00 | 0.00 | 82 | 1008.8 |
| 20260506151435 | 16 | 205 | 0.0 | 0.0 | 0.00 | 0.00 | 0.00 | 82 | 1008.8 |
| 20260506150935 | 16 | 80 | 0.0 | 0.0 | 0.00 | 0.00 | 0.00 | 82 | 1008.6 |
| 20260506150430 | 16 | 203 | 0.0 | 0.0 | 0.00 | 0.00 | 0.00 | 81 | 1008.4 |
| 20260506145932 | 16 | 217 | 0.0 | 0.0 | 0.00 | 0.00 | 0.00 | 82 | 1008.2 |
| 20260506145440 | 16 | 166 | 0.0 | 0.0 | 0.00 | 0.00 | 0.00 | 82 | 1008.2 |
| 20260506145436 | 16 | 250 | 0.0 | 0.0 | 0.00 | 0.00 | 0.00 | 81 | 1008.2 |
| 20260506144929 | 16 | 70 | 0.0 | 0.0 | 0.00 | 0.00 | 0.00 | 82 | 1008.3 |
| 20260506143927 | 16 | 237 | 0.0 | 0.0 | 0.00 | 0.00 | 0.00 | 83 | 1008.4 |
| 20260506143427 | 16 | 196 | 0.0 | 0.0 | 0.00 | 0.00 | 0.00 | 83 | 1008.5 |
| 20260506142927 | 16 | 97 | 0.0 | 0.0 | 0.00 | 0.00 | 0.00 | 83 | 1008.8 |
| 20260506142411 | 16 | 276 | 0.0 | 0.0 | 0.00 | 0.00 | 0.00 | 84 | 1008.9 |
| 20260506141909 | 16 | 153 | 0.0 | 0.0 | 0.00 | 0.00 | 0.00 | 84 | 1009.0 |
| 20260506141409 | 16 | 224 | 0.0 | 0.0 | 0.00 | 0.00 | 0.00 | 84 | 1009.0 |
| 20260506140909 | 16 | 262 | 0.0 | 0.0 | 0.00 | 0.00 | 0.00 | 84 | 1009.1 |
| 20260506140403 | 16 | 250 | 0.0 | 0.0 | 0.00 | 0.00 | 0.00 | 84 | 1009.0 |
| 20260506135903 | 15 | 215 | 0.0 | 0.0 | 0.00 | 0.00 | 0.00 | 85 | 1009.0 |
| 20260506135401 | 15 | 257 | 0.0 | 0.0 | 0.00 | 0.00 | 0.00 | 85 | 1009.0 |
| 20260506134901 | 15 | 277 | 0.0 | 0.0 | 0.00 | 0.00 | 0.00 | 85 | 1009.0 |
| 20260506134401 | 15 | 208 | 0.0 | 0.0 | 0.00 | 0.00 | 0.00 | 85 | 1009.0 |
| 20260506133900 | 15 | 258 | 0.0 | 0.0 | 0.00 | 0.00 | 0.00 | 85 | 1009.0 |
| 20260506133341 | 15 | 236 | 0.0 | 0.0 | 0.00 | 0.00 | 0.00 | 85 | 1008.9 |
| 20260506132839 | 15 | 248 | 0.0 | 0.0 | 0.00 | 0.00 | 0.00 | 84 | 1008.8 |
| 20260506132332 | 15 | 41 | 0.0 | 0.0 | 0.00 | 0.00 | 0.00 | 85 | 1008.7 |
| 20260506131833 | 15 | 200 | 0.0 | 0.0 | 0.00 | 0.00 | 0.00 | 85 | 1008.9 |
| 20260506131311 | 15 | 136 | 0.0 | 0.0 | 0.00 | 0.00 | 0.00 | 85 | 1008.6 |
| 20260506130815 | 15 | 155 | 0.0 | 0.0 | 0.00 | 0.00 | 0.00 | 85 | 1008.6 |
| 20260506130811 | 15 | 195 | 0.0 | 0.0 | 0.00 | 0.00 | 0.00 | 85 | 1008.6 |
| 20260506130415 | 15 | 138 | 0.0 | 0.0 | 0.00 | 0.00 | 0.00 | 87 | 1008.7 |
| 20260506125311 | 14 | 233 | 0.0 | 0.0 | 0.00 | 0.00 | 0.00 | 86 | 1008.7 |
| 20260506124811 | 15 | 216 | 0.0 | 0.0 | 0.00 | 0.00 | 0.00 | 86 | 1008.8 |
| 20260506124310 | 14 | 116 | 0.0 | 0.0 | 0.00 | 0.00 | 0.00 | 87 | 1008.9 |
| 20260506123811 | 14 | 119 | 0.0 | 0.0 | 0.00 | 0.00 | 0.00 | 88 | 1008.9 |
| 20260506123256 | 13 | 124 | 0.0 | 0.0 | 0.00 | 0.00 | 0.00 | 88 | 1009.0 |
| 20260506123252 | 14 | 213 | 0.0 | 0.0 | 0.00 | 0.00 | 0.00 | 87 | 1009.1 |
| 20260506122248 | 14 | 151 | 0.0 | 0.0 | 0.00 | 0.00 | 0.00 | 87 | 1009.0 |
| 20260506121747 | 14 | 238 | 0.0 | 0.0 | 0.00 | 0.00 | 0.00 | 88 | 1008.9 |
| 20260506121247 | 14 | 118 | 0.0 | 0.0 | 0.00 | 0.00 | 0.00 | 88 | 1009.0 |
| 20260506120744 | 14 | 113 | 0.0 | 0.0 | 0.00 | 0.00 | 0.00 | 88 | 1009.0 |
| 20260506120209 | 13 | 183 | 0.0 | 0.0 | 0.00 | 0.00 | 0.00 | 89 | 1009.1 |
| 20260506115709 | 13 | 106 | 0.0 | 0.0 | 0.00 | 0.00 | 0.00 | 88 | 1009.1 |
| 20260506115653 | 13 | 193 | 0.0 | 0.0 | 0.00 | 0.00 | 0.00 | 89 | 1009.3 |